#timestamp,LO_Frequency,Hit,StdDev 
1507906815.5,286047001.9,N
1507906835.4,286047003.7,N
1507906855.2,286046998.1,N
1507906875.0,286046998.9,N
1507906875.9,286046998.9,N
1507906895.8,286046998.2,N
1507906915.6,286047000.2,N
1507906935.4,286047001.0,N
1507906955.3,286047004.2,N
1507906975.1,286047004.0,N
1507906995.8,286047004.0,N
1507907015.7,286047000.6,N
1507907035.5,286047002.0,N
1507907055.3,286047000.2,N
1507907075.2,286047005.5,N
1507907095.9,286047002.6,N
1507907115.7,286047004.4,N
1507907135.6,286047002.5,N
1507907155.4,286046999.3,N
1507907175.2,286046999.1,N
1507907195.0,286046997.1,N
1507907196.0,286046997.1,N
1507907215.8,286047000.5,N
1507907235.6,286046996.8,N
1507907255.4,286046996.5,N
1507907275.3,286046999.3,N
1507907295.1,286047004.3,N
1507907315.8,286047001.9,N
1507907335.7,286047002.5,N
1507907355.5,286047001.5,N
1507907375.3,286047002.0,N
1507907395.2,286047002.3,N
1507907415.9,286047000.3,N
1507907435.7,286047000.1,N
1507907455.6,286047000.3,N
1507907475.4,286046999.0,N
1507907495.2,286046997.3,N
1507907515.1,286047000.4,N
1507907516.0,286047000.4,N
1507907535.8,286046997.9,N
1507907555.6,286046995.4,N
1507907575.5,286046993.5,N
1507907595.3,286046992.2,N
1507907615.1,286046996.9,N
1507907635.9,286046996.1,N
1507907655.7,286046996.9,N
1507907675.5,286046995.4,N
1507907695.3,286046995.2,N
1507907715.2,286046997.8,N
1507907735.0,286046995.3,N
1507907735.9,286046995.3,N
1507907755.7,286046992.7,N
1507907775.6,286046992.3,N
1507907795.4,286046994.0,N
1507907815.2,286046997.7,N
1507907835.0,286046995.1,N
1507907835.9,286046995.1,N
1507907855.8,286046995.4,N
1507907875.6,286046994.8,N
1507907895.4,286046994.7,N
1507907915.3,286046993.3,N
1507907935.1,286046994.0,N
1507907936.0,286046994.0,N
1507907955.8,286046993.9,N
1507907975.7,286046995.0,N
1507907995.5,286046999.4,N
1507908015.3,286046999.6,N
1507908035.1,286046999.1,N
1507908055.9,286046995.9,N
1507908075.7,286046997.9,N
1507908095.5,286046997.2,N
1507908115.4,286046995.2,N
1507908135.2,286046994.8,N
1507908155.0,286046993.8,Y
1507908155.9,286046993.8,P
1507908175.8,286047002.8,N
1507908195.6,286047002.0,N
1507908215.4,286046998.5,N
1507908235.3,286046999.0,N
1507908255.1,286046998.9,N
1507908275.8,286046997.4,N
1507908295.7,286046993.9,N
1507908315.5,286046993.5,N
1507908335.3,286046995.6,N
1507908355.2,286046997.4,N
1507908375.9,286046995.7,N
1507908395.7,286046999.2,N
1507908415.6,286046998.4,N
1507908435.4,286046997.8,N
1507908455.2,286046996.6,N
1507908475.1,286046998.3,N
1507908476.0,286046998.3,N
1507908495.8,286046994.9,N
1507908515.6,286047002.4,N
1507908535.5,286047002.9,N
1507908555.3,286047003.0,N
1507908575.1,286047003.0,N
1507908595.8,286047005.9,N
1507908615.7,286047004.8,N
1507908635.5,286047009.8,N
1507908655.3,286047007.8,N
1507908675.2,286047005.0,N
1507908695.9,286047004.0,N
1507908715.7,286047003.7,N
1507908735.6,286047001.3,N
1507908755.4,286047005.4,N
1507908775.2,286047008.4,N
1507908795.1,286047006.3,N
1507908796.0,286047006.3,N
1507908815.8,286047007.5,N
1507908835.6,286047006.6,N
1507908855.5,286047007.1,N
1507908875.3,286047004.7,N
1507908895.1,286047004.8,N
1507908915.8,286047004.7,N
1507908935.7,286047006.2,N
1507908955.5,286047011.8,Y
1507908975.4,286047005.9,P
1507908995.2,286047004.0,P
1507909015.0,286047003.4,P
1507909015.9,286047003.4,Y
1507909035.8,286046997.0,P
1507909055.6,286046998.8,N
1507909075.4,286046996.9,N
1507909095.3,286046996.1,N
1507909115.1,286046995.5,N
1507909116.0,286046995.5,N
1507909135.8,286046990.6,Y
1507909155.7,286046992.5,P
1507909175.5,286046994.7,N
1507909195.3,286046992.5,P
1507909215.2,286046993.1,Y
1507909235.9,286047000.8,P
1507909255.7,286046999.3,N
1507909275.6,286046993.7,N
1507909295.4,286046999.6,N
1507909315.2,286047000.3,N
1507909335.1,286047000.7,N
1507909336.0,286047000.7,N
1507909355.8,286047000.8,N
1507909375.6,286046998.5,N
1507909395.5,286047001.2,N
1507909415.3,286047000.6,N
1507909435.1,286047005.8,N
1507909455.9,286047004.3,N
1507909475.7,286047003.0,N
1507909495.5,286047003.5,N
1507909515.3,286047001.9,N
1507909535.2,286047001.5,N
1507909555.0,286047000.1,N
1507909555.9,286047000.1,N
1507909575.7,286047002.5,N
1507909595.6,286047000.0,N
1507909615.4,286047000.0,N
1507909635.2,286047000.6,N
1507909655.1,286046999.6,N
1507909656.0,286046999.6,N
1507909675.8,286047000.9,N
1507909695.6,286047000.9,N
1507909715.5,286047003.7,N
1507909735.3,286047002.8,N
1507909755.1,286046999.4,N
1507909775.9,286046999.0,N
1507909795.7,286046999.1,N
1507909815.5,286047006.4,N
1507909835.4,286047003.3,N
1507909855.2,286047007.6,Y
1507909875.0,286047001.3,P
1507909875.9,286047001.3,P
1507909895.8,286047004.5,P
1507909915.6,286047008.1,Y
1507909935.4,286047005.2,P
1507909955.3,286047007.2,P
1507909975.1,286047006.6,P
1507909976.0,286047006.6,Y
1507909995.8,286046998.9,P
1507910015.7,286046999.2,N
1507910035.5,286046992.1,N
1507910055.3,286046992.1,N
1507910075.2,286046999.3,N
1507910095.9,286046997.8,N
1507910115.7,286046997.3,N
1507910135.6,286046998.7,N
1507910155.4,286046997.2,N
1507910175.2,286046999.4,N
1507910195.0,286047002.2,N
1507910196.0,286047002.2,N
1507910215.8,286046998.6,N
1507910235.6,286046999.1,N
1507910255.4,286046996.5,N
1507910275.3,286046998.0,N
1507910295.1,286046995.5,N
1507910315.8,286046995.5,N
1507910335.7,286046993.5,N
1507910355.5,286046995.5,N
1507910375.3,286046993.4,N
1507910395.2,286046994.6,N
